START_TIME,STEP,MOV.,M29,t_acc.,H22,t_acc.,H26,t_acc.,H30,t_acc.
1980-11-14 15:00:20.470 ,7,0,0.,24.0,0.,24.0,0.,24.0,0.,24.0
1980-11-14 15:00:44.470 ,6,1,0.,24.0,0.,24.0,0.,24.0,0.,24.0
1980-11-14 15:01:08.470 ,6,0,0.,24.0,0.,24.0,0.,24.0,0.,24.0
1980-11-14 15:01:32.470 ,5,1,0.,24.0,0.,24.0,0.,24.0,0.,24.0
1980-11-14 15:01:56.470 ,5,0,0.,24.0,0.,24.0,0.,24.0,0.,24.0
1980-11-14 15:02:20.470 ,4,1,0.,24.0,0.,24.0,0.,24.0,0.,24.0
1980-11-14 15:02:44.470 ,4,0,0.,24.0,0.,24.0,0.,24.0,0.,24.0
1980-11-14 15:03:08.470 ,3,1,0.,24.0,0.,24.0,0.,24.0,0.,24.0
1980-11-14 15:03:32.470 ,3,0,0.,24.0,0.,24.0,0.,24.0,0.,24.0
1980-11-14 15:03:56.470 ,2,1,0.,24.0,0.,24.0,0.,24.0,0.,24.0
1980-11-14 15:04:20.470 ,2,0,0.,24.0,0.,24.0,0.,24.0,0.,24.0
1980-11-14 15:04:44.470 ,1,1,0.,24.0,0.,24.0,0.,24.0,0.,24.0
1980-11-14 15:05:08.470 ,1,0,0.,24.0,0.,24.0,0.,24.0,0.,24.0
1980-11-14 15:05:32.470 ,0,1,0.,24.0,0.,24.0,0.,24.0,0.,24.0
1980-11-14 15:05:56.470 ,0,0,0.,24.0,0.,24.0,0.,24.0,0.,24.0
1980-11-14 15:06:20.470 ,0,1,0.,24.0,0.,24.0,0.,24.0,0.,24.0
1980-11-14 15:06:44.470 ,0,0,0.,24.0,0.,24.0,0.,24.0,0.,24.0
1980-11-14 15:07:08.470 ,1,1,0.,24.0,0.,24.0,0.,24.0,0.,24.0
1980-11-14 15:07:32.470 ,1,0,0.,24.0,0.,24.0,0.,24.0,0.,24.0
1980-11-14 15:07:56.470 ,2,1,0.,24.0,0.,24.0,0.,24.0,0.,24.0
1980-11-14 15:08:20.470 ,2,0,0.,24.0,0.,24.0,0.,24.0,0.,24.0
1980-11-14 15:08:44.470 ,3,1,0.,24.0,0.,24.0,0.,24.0,0.,24.0
1980-11-14 15:09:08.470 ,3,0,0.,24.0,0.,24.0,0.,24.0,0.,24.0
1980-11-14 15:09:32.470 ,4,1,0.,24.0,0.,24.0,0.,24.0,0.,24.0
1980-11-14 15:09:56.470 ,4,0,0.,24.0,0.,24.0,0.,24.0,0.,24.0
1980-11-14 15:10:20.470 ,5,1,0.,24.0,0.,24.0,0.,24.0,0.,24.0
1980-11-14 15:10:44.470 ,5,0,0.,24.0,0.,24.0,0.,24.0,0.,24.0
1980-11-14 15:11:08.470 ,6,1,0.,24.0,0.,24.0,0.,24.0,0.,24.0
1980-11-14 15:11:32.470 ,6,0,0.,24.0,0.,24.0,0.,24.0,0.,24.0
1980-11-14 15:11:56.470 ,7,1,0.,24.0,0.,24.0,0.,24.0,0.,24.0
1980-11-14 15:12:20.470 ,7,0,0.,24.0,0.,24.0,0.,24.0,0.,24.0
1980-11-14 15:12:44.470 ,7,1,0.,24.0,0.,24.0,0.,24.0,0.,24.0
1980-11-14 15:13:08.470 ,7,0,0.,24.0,0.,24.0,0.,24.0,0.,24.0
1980-11-14 15:13:32.470 ,6,1,0.,24.0,0.,24.0,0.,24.0,0.,24.0
1980-11-14 15:13:56.470 ,6,0,0.,24.0,0.,24.0,0.,24.0,0.,24.0
1980-11-14 15:14:20.470 ,5,1,0.,24.0,0.,24.0,0.,24.0,0.,24.0
1980-11-14 15:14:44.470 ,5,0,0.,24.0,0.,24.0,0.,24.0,0.,24.0
1980-11-14 15:15:08.470 ,4,1,0.,24.0,0.,24.0,0.,24.0,0.,24.0
1980-11-14 15:15:32.470 ,4,0,0.,24.0,0.,24.0,0.,24.0,0.,24.0
1980-11-14 15:15:56.470 ,3,1,0.,24.0,0.,24.0,0.,24.0,0.,24.0
1980-11-14 15:16:20.470 ,3,0,0.,24.0,0.,24.0,0.,24.0,0.,24.0
1980-11-14 15:16:44.470 ,2,1,0.,24.0,0.,24.0,0.,24.0,0.,24.0
1980-11-14 15:17:08.470 ,2,0,0.,24.0,0.,24.0,0.,24.0,0.,24.0
1980-11-14 15:17:32.470 ,1,1,0.,24.0,0.,24.0,0.,24.0,0.,24.0
1980-11-14 15:17:56.470 ,1,0,0.,24.0,0.,24.0,0.,24.0,0.,24.0
1980-11-14 15:18:20.470 ,0,1,0.,24.0,0.,24.0,0.,24.0,0.,24.0
1980-11-14 15:18:44.470 ,0,0,0.,24.0,0.,24.0,0.,24.0,0.,24.0
1980-11-14 15:19:08.470 ,0,1,0.,24.0,0.,24.0,0.,24.0,0.,24.0
1980-11-14 15:19:32.470 ,0,0,0.,24.0,0.,24.0,0.,24.0,0.,24.0
1980-11-14 15:19:56.470 ,1,1,0.,24.0,0.,24.0,0.,24.0,0.,24.0
1980-11-14 15:20:20.470 ,1,0,0.,24.0,0.,24.0,0.,24.0,0.,24.0
1980-11-14 15:20:44.470 ,2,1,0.,24.0,0.,24.0,0.,24.0,0.,24.0
1980-11-14 15:21:08.470 ,2,0,0.,24.0,0.,24.0,0.,24.0,0.,24.0
1980-11-14 15:21:32.470 ,3,1,0.,24.0,0.,24.0,0.,24.0,0.,24.0
1980-11-14 15:21:56.470 ,3,0,0.,24.0,0.,24.0,0.,24.0,0.,24.0
1980-11-14 15:22:20.470 ,4,1,0.,24.0,0.,24.0,0.,24.0,0.,24.0
1980-11-14 15:22:44.470 ,4,0,0.,24.0,0.,24.0,0.,24.0,0.,24.0
1980-11-14 15:23:08.470 ,5,1,0.,24.0,0.,24.0,0.,24.0,0.,24.0
1980-11-14 15:23:32.470 ,5,0,0.,24.0,0.,24.0,0.,24.0,0.,24.0
1980-11-14 15:23:56.470 ,6,1,0.,24.0,0.,24.0,0.,24.0,0.,24.0
1980-11-14 15:24:20.470 ,6,0,0.,24.0,0.,24.0,0.,24.0,0.,24.0
1980-11-14 15:24:44.470 ,7,1,0.,24.0,0.,24.0,0.,24.0,0.,24.0
1980-11-14 15:25:08.470 ,7,0,0.,24.0,0.,24.0,0.,24.0,0.,24.0
1980-11-14 15:25:32.470 ,7,1,0.,24.0,0.,24.0,0.,24.0,0.,24.0
1980-11-14 15:25:56.470 ,7,0,0.,24.0,0.,24.0,0.,24.0,0.,24.0
1980-11-14 15:26:20.470 ,6,1,0.,24.0,0.,24.0,0.,24.0,0.,24.0
1980-11-14 15:26:44.470 ,6,0,0.,24.0,0.,24.0,0.,24.0,0.,24.0
1980-11-14 15:27:08.470 ,5,1,0.,24.0,0.,24.0,0.,24.0,0.,24.0
1980-11-14 15:27:32.470 ,5,0,0.,24.0,0.,24.0,0.,24.0,0.,24.0
1980-11-14 15:27:56.470 ,4,1,0.,24.0,0.,24.0,0.,24.0,0.,24.0
1980-11-14 15:28:20.470 ,4,0,0.,24.0,0.,24.0,0.,24.0,0.,24.0
1980-11-14 15:28:44.470 ,3,1,0.,24.0,0.,24.0,0.,24.0,0.,24.0
1980-11-14 15:29:08.470 ,3,0,0.,24.0,0.,24.0,0.,24.0,0.,24.0
1980-11-14 15:29:32.470 ,2,1,0.,24.0,0.,24.0,0.,24.0,0.,24.0
1980-11-14 15:29:56.470 ,2,0,0.,24.0,0.,24.0,0.,24.0,0.,24.0
1980-11-14 15:30:20.470 ,1,1,0.,24.0,0.,24.0,0.,24.0,0.,24.0
1980-11-14 15:30:44.470 ,1,0,0.,24.0,0.,24.0,0.,24.0,0.,24.0
1980-11-14 15:31:08.470 ,0,1,0.,24.0,0.,24.0,0.,24.0,0.,24.0
1980-11-14 15:31:32.470 ,0,0,0.,24.0,0.,24.0,0.,24.0,0.,24.0
1980-11-14 15:31:56.470 ,0,1,0.,24.0,0.,24.0,0.,24.0,0.,24.0
1980-11-14 15:32:20.470 ,0,0,0.,24.0,0.,24.0,0.,24.0,0.,24.0
1980-11-14 15:32:44.470 ,1,1,0.,24.0,0.,24.0,0.,24.0,0.,24.0
1980-11-14 15:33:08.470 ,1,0,0.,24.0,0.,24.0,0.,24.0,0.,24.0
1980-11-14 15:33:32.470 ,2,1,0.,24.0,0.,24.0,0.,24.0,0.,24.0
1980-11-14 15:33:56.470 ,2,0,0.,24.0,0.,24.0,0.,24.0,0.,24.0
1980-11-14 15:34:20.470 ,3,1,0.,24.0,0.,24.0,0.,24.0,0.,24.0
1980-11-14 15:34:44.470 ,3,0,0.,24.0,0.,24.0,0.,24.0,0.,24.0
1980-11-14 15:35:08.470 ,4,1,0.,24.0,0.,24.0,0.,24.0,0.,24.0
1980-11-14 15:35:32.470 ,4,0,0.,24.0,0.,24.0,0.,24.0,0.,24.0
1980-11-14 15:35:56.470 ,5,1,0.,24.0,0.,24.0,0.,24.0,0.,24.0
1980-11-14 15:36:20.470 ,5,0,0.,24.0,0.,24.0,0.,24.0,0.,24.0
1980-11-14 15:36:44.470 ,6,1,0.,24.0,0.,24.0,0.,24.0,0.,24.0
1980-11-14 15:37:08.470 ,6,0,0.,24.0,0.,24.0,0.,24.0,0.,24.0
1980-11-14 15:37:32.470 ,7,1,0.,24.0,0.,24.0,0.,24.0,0.,24.0
1980-11-14 15:37:56.470 ,7,0,0.,24.0,0.,24.0,0.,24.0,0.,24.0
1980-11-14 15:38:20.470 ,7,1,0.,24.0,0.,24.0,0.,24.0,0.,24.0
1980-11-14 15:38:44.470 ,7,0,0.,24.0,0.,24.0,0.,24.0,0.,24.0
1980-11-14 15:39:08.470 ,6,1,0.,24.0,0.,24.0,0.,24.0,0.,24.0
1980-11-14 15:39:32.470 ,0,0,,0,,0,,0,,0
1980-11-14 15:39:56.470 ,5,1,0.,24.0,0.,24.0,0.,24.0,0.,24.0
1980-11-14 15:40:20.470 ,5,0,0.,24.0,0.,24.0,0.,24.0,0.,24.0
1980-11-14 15:40:44.470 ,4,1,0.,24.0,0.,24.0,0.,24.0,0.,24.0
1980-11-14 15:41:08.470 ,4,0,0.,24.0,0.,24.0,0.,24.0,0.,24.0
1980-11-14 15:41:32.470 ,3,1,0.,24.0,0.,24.0,0.,24.0,0.,24.0
1980-11-14 15:41:56.470 ,3,0,0.,24.0,0.,24.0,0.,24.0,0.,24.0
1980-11-14 15:42:20.470 ,2,1,0.,24.0,0.,24.0,0.,24.0,0.,24.0
1980-11-14 15:42:44.470 ,2,0,0.,24.0,0.,24.0,0.,24.0,0.,24.0
1980-11-14 15:43:08.470 ,1,1,1.,24.0,0.,24.0,0.,24.0,0.,24.0
1980-11-14 15:43:32.470 ,1,0,0.,24.0,0.,24.0,0.,24.0,0.,24.0
1980-11-14 15:43:56.470 ,0,1,0.,24.0,0.,24.0,0.,24.0,0.,24.0
1980-11-14 15:44:20.470 ,0,0,0.,24.0,0.,24.0,0.,24.0,0.,24.0
1980-11-14 15:44:44.470 ,0,1,0.,24.0,0.,24.0,0.,24.0,0.,24.0
1980-11-14 15:45:08.470 ,0,0,0.,24.0,0.,24.0,0.,24.0,0.,24.0
1980-11-14 15:45:32.470 ,1,1,0.,24.0,0.,24.0,0.,24.0,0.,24.0
1980-11-14 15:45:56.470 ,1,0,0.,24.0,0.,24.0,0.,24.0,0.,24.0
1980-11-14 15:46:20.470 ,2,1,0.,24.0,0.,24.0,0.,24.0,0.,24.0
1980-11-14 15:46:44.470 ,2,0,0.,24.0,0.,24.0,0.,24.0,0.,24.0
1980-11-14 15:47:08.470 ,3,1,0.,24.0,0.,24.0,0.,24.0,0.,24.0
1980-11-14 15:47:32.470 ,3,0,0.,24.0,0.,24.0,0.,24.0,0.,24.0
1980-11-14 15:47:56.470 ,4,1,0.,24.0,0.,24.0,0.,24.0,0.,24.0
1980-11-14 15:48:20.470 ,4,0,0.,24.0,0.,24.0,0.,24.0,0.,24.0
1980-11-14 15:48:44.470 ,5,1,0.,24.0,0.,24.0,0.,24.0,0.,24.0
1980-11-14 15:49:08.470 ,5,0,0.,24.0,0.,24.0,0.,24.0,0.,24.0
1980-11-14 15:49:32.470 ,6,1,0.,24.0,0.,24.0,0.,24.0,0.,24.0
1980-11-14 15:49:56.470 ,6,0,0.,24.0,0.,24.0,0.,24.0,0.,24.0
1980-11-14 15:50:20.470 ,7,1,0.,24.0,0.,24.0,0.,24.0,0.,24.0
1980-11-14 15:50:44.470 ,7,0,0.,24.0,0.,24.0,0.,24.0,0.,24.0
1980-11-14 15:51:08.470 ,7,1,0.,24.0,0.,24.0,0.,24.0,0.,24.0
1980-11-14 15:51:32.470 ,7,0,0.,24.0,0.,24.0,0.,24.0,0.,24.0
1980-11-14 15:51:56.470 ,6,1,0.,24.0,0.,24.0,0.,24.0,0.,24.0
1980-11-14 15:52:20.470 ,6,0,0.,24.0,0.,24.0,0.,24.0,0.,24.0
1980-11-14 15:52:44.470 ,5,1,0.,24.0,0.,24.0,0.,24.0,0.,24.0
1980-11-14 15:53:08.470 ,5,0,0.,24.0,0.,24.0,0.,24.0,0.,24.0
1980-11-14 15:53:32.470 ,4,1,0.,24.0,0.,24.0,0.,24.0,0.,24.0
1980-11-14 15:53:56.470 ,4,0,0.,24.0,0.,24.0,0.,24.0,0.,24.0
1980-11-14 15:54:20.470 ,3,1,0.,24.0,0.,24.0,0.,24.0,0.,24.0
1980-11-14 15:54:44.470 ,3,0,0.,24.0,0.,24.0,0.,24.0,0.,24.0
1980-11-14 15:55:08.470 ,2,1,0.,24.0,0.,24.0,0.,24.0,0.,24.0
1980-11-14 15:55:32.470 ,2,0,0.,24.0,0.,24.0,0.,24.0,0.,24.0
1980-11-14 15:55:56.470 ,1,1,0.,24.0,0.,24.0,0.,24.0,0.,24.0
1980-11-14 15:56:20.470 ,1,0,0.,24.0,0.,24.0,0.,24.0,0.,24.0
1980-11-14 15:56:44.470 ,0,1,0.,24.0,0.,24.0,0.,24.0,0.,24.0
1980-11-14 15:57:08.470 ,0,0,0.,24.0,0.,24.0,0.,24.0,0.,24.0
1980-11-14 15:57:32.470 ,0,1,0.,24.0,0.,24.0,0.,24.0,0.,24.0
1980-11-14 15:57:56.470 ,0,0,1.,24.0,0.,24.0,0.,24.0,0.,24.0
1980-11-14 15:58:20.470 ,1,1,0.,24.0,0.,24.0,0.,24.0,0.,24.0
1980-11-14 15:58:44.470 ,1,0,0.,24.0,0.,24.0,0.,24.0,0.,24.0
1980-11-14 15:59:56.470 ,0,0,0.,24.0,0.,24.0,0.,24.0,0.,24.0
1980-11-14 16:00:20.470 ,0,0,0.,24.0,0.,24.0,0.,24.0,0.,24.0
1980-11-14 16:00:44.470 ,4,1,0.,24.0,0.,24.0,0.,24.0,0.,24.0
1980-11-14 16:01:08.470 ,4,0,0.,24.0,0.,24.0,0.,24.0,0.,24.0
1980-11-14 16:01:32.470 ,5,1,0.,24.0,0.,24.0,0.,24.0,0.,24.0
1980-11-14 16:01:56.470 ,5,0,0.,24.0,0.,24.0,0.,24.0,0.,24.0
1980-11-14 16:02:20.470 ,6,1,0.,24.0,0.,24.0,0.,24.0,0.,24.0
1980-11-14 16:02:44.470 ,6,0,0.,24.0,0.,24.0,0.,24.0,0.,24.0
1980-11-14 16:03:08.470 ,7,1,0.,24.0,0.,24.0,0.,24.0,0.,24.0
1980-11-14 16:03:32.470 ,7,0,0.,24.0,0.,24.0,0.,24.0,0.,24.0
1980-11-14 16:03:56.470 ,7,1,0.,24.0,0.,24.0,0.,24.0,0.,24.0
1980-11-14 16:04:20.470 ,7,0,0.,24.0,0.,24.0,0.,24.0,0.,24.0
1980-11-14 16:04:44.470 ,6,1,0.,24.0,0.,24.0,0.,24.0,0.,24.0
1980-11-14 16:05:08.470 ,6,0,0.,24.0,0.,24.0,0.,24.0,0.,24.0
1980-11-14 16:05:32.470 ,5,1,0.,24.0,0.,24.0,0.,24.0,0.,24.0
1980-11-14 16:05:56.470 ,5,0,0.,24.0,0.,24.0,0.,24.0,0.,24.0
1980-11-14 16:06:20.470 ,4,1,0.,24.0,0.,24.0,0.,24.0,0.,24.0
1980-11-14 16:06:44.470 ,4,0,0.,24.0,0.,24.0,0.,24.0,0.,24.0
1980-11-14 16:07:08.470 ,3,1,0.,24.0,0.,24.0,0.,24.0,0.,24.0
1980-11-14 16:07:32.470 ,3,0,0.,24.0,0.,24.0,0.,24.0,0.,24.0
1980-11-14 16:07:56.470 ,2,1,0.,24.0,0.,24.0,0.,24.0,0.,24.0
1980-11-14 16:08:20.470 ,2,0,0.,24.0,0.,24.0,0.,24.0,0.,24.0
1980-11-14 16:08:44.470 ,1,1,0.,24.0,0.,24.0,0.,24.0,0.,24.0
1980-11-14 16:09:08.470 ,1,0,0.,24.0,0.,24.0,0.,24.0,0.,24.0
1980-11-14 16:09:32.470 ,0,1,0.,24.0,0.,24.0,0.,24.0,0.,24.0
1980-11-14 16:09:56.470 ,0,0,0.,24.0,0.,24.0,0.,24.0,0.,24.0
1980-11-14 16:10:20.470 ,0,1,1.,24.0,0.,24.0,0.,24.0,0.,24.0
1980-11-14 16:10:44.470 ,0,0,0.,24.0,0.,24.0,0.,24.0,0.,24.0
1980-11-14 16:14:14.470 ,0,0,,0,,0,,0,,0
1980-11-14 16:14:24.670 ,0,0,0.,24.0,0.,24.0,0.,24.0,0.,24.0
1980-11-14 16:14:44.470 ,0,0,0.,24.0,0.,24.0,0.,24.0,0.,24.0
1980-11-14 16:15:08.470 ,6,1,0.,24.0,0.,24.0,0.,24.0,0.,24.0
1980-11-14 16:15:32.470 ,6,0,0.,24.0,0.,24.0,0.,24.0,0.,24.0
1980-11-14 16:15:56.470 ,7,1,0.,24.0,0.,24.0,0.,24.0,0.,24.0
1980-11-14 16:16:20.470 ,7,0,0.,24.0,0.,24.0,0.,24.0,0.,24.0
1980-11-14 16:16:44.470 ,7,1,0.,24.0,0.,24.0,0.,24.0,0.,24.0
1980-11-14 16:17:08.470 ,7,0,0.,24.0,0.,24.0,0.,24.0,0.,24.0
1980-11-14 16:17:32.470 ,6,1,0.,24.0,0.,24.0,0.,24.0,0.,24.0
1980-11-14 16:17:56.470 ,6,0,0.,24.0,0.,24.0,0.,24.0,0.,24.0
1980-11-14 16:18:20.470 ,5,1,0.,24.0,0.,24.0,0.,24.0,0.,24.0
1980-11-14 16:18:44.470 ,5,0,0.,24.0,0.,24.0,0.,24.0,0.,24.0
1980-11-14 16:19:08.470 ,4,1,0.,24.0,0.,24.0,0.,24.0,0.,24.0
1980-11-14 16:19:32.470 ,4,0,0.,24.0,0.,24.0,0.,24.0,0.,24.0
1980-11-14 16:19:56.470 ,3,1,0.,24.0,0.,24.0,0.,24.0,0.,24.0
1980-11-14 16:20:20.470 ,3,0,0.,24.0,0.,24.0,0.,24.0,0.,24.0
1980-11-14 16:20:44.470 ,2,1,0.,24.0,0.,24.0,0.,24.0,0.,24.0
1980-11-14 16:21:08.470 ,2,0,0.,24.0,0.,24.0,0.,24.0,0.,24.0
1980-11-14 16:21:32.470 ,1,1,0.,24.0,0.,24.0,0.,24.0,0.,24.0
1980-11-14 16:21:56.470 ,1,0,0.,24.0,0.,24.0,0.,24.0,0.,24.0
1980-11-14 16:22:20.470 ,0,1,0.,24.0,0.,24.0,0.,24.0,0.,24.0
1980-11-14 16:22:44.470 ,0,0,0.,24.0,0.,24.0,0.,24.0,0.,24.0
1980-11-14 16:23:08.470 ,0,1,0.,24.0,0.,24.0,0.,24.0,0.,24.0
1980-11-14 16:23:32.470 ,0,0,0.,24.0,0.,24.0,0.,24.0,0.,24.0
1980-11-14 16:45:32.470 ,0,0,0.,24.0,0.,24.0,0.,24.0,0.,24.0
1980-11-14 16:45:56.470 ,0,0,0.,24.0,0.,24.0,0.,24.0,0.,24.0
1980-11-14 16:46:20.470 ,2,1,0.,24.0,0.,24.0,0.,24.0,0.,24.0
1980-11-14 16:46:44.470 ,2,0,0.,24.0,0.,24.0,0.,24.0,0.,24.0
1980-11-14 16:47:08.470 ,1,1,0.,24.0,0.,24.0,0.,24.0,0.,24.0
1980-11-14 16:47:32.470 ,1,0,0.,24.0,0.,24.0,0.,24.0,0.,24.0
1980-11-14 16:47:56.470 ,0,1,1.,24.0,0.,24.0,0.,24.0,0.,24.0
1980-11-14 16:48:20.470 ,0,0,0.,24.0,0.,24.0,0.,24.0,0.,24.0
1980-11-14 16:48:44.470 ,0,1,0.,24.0,0.,24.0,0.,24.0,0.,24.0
1980-11-14 16:49:08.470 ,0,0,0.,24.0,0.,24.0,0.,24.0,0.,24.0
1980-11-14 16:49:32.470 ,1,1,0.,24.0,0.,24.0,0.,24.0,0.,24.0
1980-11-14 16:49:56.470 ,1,0,0.,24.0,0.,24.0,0.,24.0,0.,24.0
1980-11-14 16:50:20.470 ,2,1,0.,24.0,0.,24.0,0.,24.0,0.,24.0
1980-11-14 16:50:44.470 ,2,0,0.,24.0,0.,24.0,0.,24.0,0.,24.0
1980-11-14 16:51:08.470 ,3,1,0.,24.0,0.,24.0,0.,24.0,0.,24.0
1980-11-14 16:51:32.470 ,3,0,0.,24.0,0.,24.0,0.,24.0,0.,24.0
1980-11-14 16:51:56.470 ,4,1,0.,24.0,0.,24.0,0.,24.0,0.,24.0
1980-11-14 16:52:20.470 ,4,0,0.,24.0,0.,24.0,0.,24.0,0.,24.0
1980-11-14 16:52:44.470 ,5,1,0.,24.0,0.,24.0,0.,24.0,0.,24.0
1980-11-14 16:53:08.470 ,5,0,0.,24.0,0.,24.0,0.,24.0,0.,24.0
1980-11-14 16:53:32.470 ,6,1,0.,24.0,0.,24.0,0.,24.0,0.,24.0
1980-11-14 16:53:56.470 ,6,0,0.,24.0,0.,24.0,0.,24.0,0.,24.0
1980-11-14 16:54:20.470 ,7,1,0.,24.0,0.,24.0,0.,24.0,0.,24.0
1980-11-14 16:54:44.470 ,7,0,0.,24.0,0.,24.0,0.,24.0,0.,24.0
1980-11-14 16:55:08.470 ,7,1,0.,24.0,0.,24.0,0.,24.0,0.,24.0
1980-11-14 16:55:32.470 ,7,0,0.,24.0,0.,24.0,0.,24.0,0.,24.0
1980-11-14 16:55:56.470 ,6,1,0.,24.0,0.,24.0,0.,24.0,0.,24.0
1980-11-14 16:56:20.470 ,6,0,0.,24.0,0.,24.0,0.,24.0,0.,24.0
1980-11-14 16:56:44.470 ,5,1,0.,24.0,0.,24.0,0.,24.0,0.,24.0
1980-11-14 16:57:08.470 ,5,0,0.,24.0,0.,24.0,0.,24.0,0.,24.0
1980-11-14 16:57:32.470 ,4,1,0.,24.0,0.,24.0,0.,24.0,0.,24.0
1980-11-14 16:57:56.470 ,4,0,0.,24.0,0.,24.0,0.,24.0,0.,24.0
1980-11-14 16:58:20.470 ,3,1,0.,24.0,0.,24.0,0.,24.0,0.,24.0
1980-11-14 16:58:44.470 ,3,0,0.,24.0,0.,24.0,0.,24.0,0.,24.0
1980-11-14 16:59:08.470 ,2,1,0.,24.0,0.,24.0,0.,24.0,0.,24.0
1980-11-14 16:59:32.470 ,2,0,0.,24.0,0.,24.0,0.,24.0,0.,24.0
1980-11-14 17:02:20.470 ,0,0,0.,24.0,0.,24.0,0.,24.0,0.,24.0
1980-11-14 17:02:44.470 ,0,0,0.,24.0,0.,24.0,0.,24.0,0.,24.0
1980-11-14 17:03:08.470 ,2,1,0.,24.0,0.,24.0,0.,24.0,0.,24.0
1980-11-14 17:03:32.470 ,2,0,0.,24.0,0.,24.0,0.,24.0,0.,24.0
1980-11-14 17:03:56.470 ,3,1,0.,24.0,0.,24.0,0.,24.0,0.,24.0
1980-11-14 17:04:20.470 ,3,0,0.,24.0,0.,24.0,0.,24.0,0.,24.0
1980-11-14 17:04:44.470 ,4,1,0.,24.0,0.,24.0,0.,24.0,0.,24.0
1980-11-14 17:05:08.470 ,4,0,0.,24.0,0.,24.0,0.,24.0,0.,24.0
1980-11-14 17:05:32.470 ,5,1,0.,24.0,0.,24.0,0.,24.0,0.,24.0
1980-11-14 17:05:56.470 ,5,0,0.,24.0,0.,24.0,0.,24.0,0.,24.0
1980-11-14 17:06:20.470 ,6,1,0.,24.0,0.,24.0,0.,24.0,0.,24.0
1980-11-14 17:06:44.470 ,6,0,0.,24.0,0.,24.0,0.,24.0,0.,24.0
1980-11-14 17:07:08.470 ,7,1,0.,24.0,0.,24.0,0.,24.0,0.,24.0
1980-11-14 17:07:32.470 ,7,0,0.,24.0,0.,24.0,0.,24.0,0.,24.0
1980-11-14 17:07:56.470 ,7,1,0.,24.0,0.,24.0,0.,24.0,0.,24.0
1980-11-14 17:08:20.470 ,7,0,0.,24.0,0.,24.0,0.,24.0,0.,24.0
1980-11-14 17:08:44.470 ,6,1,0.,24.0,0.,24.0,0.,24.0,0.,24.0
1980-11-14 17:09:08.470 ,6,0,0.,24.0,0.,24.0,0.,24.0,0.,24.0
1980-11-14 17:09:32.470 ,5,1,0.,24.0,0.,24.0,0.,24.0,0.,24.0
1980-11-14 17:09:56.470 ,5,0,0.,24.0,0.,24.0,0.,24.0,0.,24.0
1980-11-14 17:10:20.470 ,4,1,0.,24.0,0.,24.0,0.,24.0,0.,24.0
1980-11-14 17:10:44.470 ,4,0,0.,24.0,0.,24.0,0.,24.0,0.,24.0
1980-11-14 17:11:08.470 ,3,1,0.,24.0,0.,24.0,0.,24.0,0.,24.0
1980-11-14 17:11:32.470 ,3,0,0.,24.0,0.,24.0,0.,24.0,0.,24.0
1980-11-14 17:11:56.470 ,2,1,0.,24.0,0.,24.0,0.,24.0,0.,24.0
1980-11-14 17:12:20.470 ,2,0,0.,24.0,0.,24.0,0.,24.0,0.,24.0
1980-11-14 17:12:44.470 ,1,1,0.,24.0,0.,24.0,0.,24.0,0.,24.0
1980-11-14 17:13:08.470 ,1,0,0.,24.0,0.,24.0,0.,24.0,0.,24.0
1980-11-14 17:13:32.470 ,0,1,0.,24.0,0.,24.0,0.,24.0,0.,24.0
1980-11-14 17:13:56.470 ,0,0,0.,24.0,0.,24.0,0.,24.0,0.,24.0
1980-11-14 17:14:20.470 ,0,1,0.,24.0,0.,24.0,0.,24.0,0.,24.0
1980-11-14 17:14:44.470 ,0,0,0.,24.0,0.,24.0,0.,24.0,0.,24.0
1980-11-14 17:15:08.470 ,1,1,0.,24.0,0.,24.0,0.,24.0,0.,24.0
1980-11-14 17:15:32.470 ,1,0,0.,24.0,0.,24.0,0.,24.0,0.,24.0
1980-11-14 17:15:56.470 ,2,1,0.,24.0,0.,24.0,0.,24.0,0.,24.0
1980-11-14 17:16:20.470 ,2,0,0.,24.0,0.,24.0,0.,24.0,0.,24.0
1980-11-14 17:16:44.470 ,3,1,0.,24.0,0.,24.0,0.,24.0,0.,24.0
1980-11-14 17:17:08.470 ,3,0,0.,24.0,0.,24.0,0.,24.0,0.,24.0
1980-11-14 17:17:32.470 ,4,1,0.,24.0,0.,24.0,0.,24.0,0.,24.0
1980-11-14 17:17:56.470 ,4,0,0.,24.0,0.,24.0,0.,24.0,0.,24.0
1980-11-14 17:18:20.470 ,5,1,0.,24.0,0.,24.0,0.,24.0,0.,24.0
1980-11-14 17:18:44.470 ,5,0,0.,24.0,0.,24.0,0.,24.0,0.,24.0
1980-11-14 17:19:08.470 ,6,1,0.,24.0,0.,24.0,0.,24.0,0.,24.0
1980-11-14 17:19:32.470 ,6,0,0.,24.0,0.,24.0,0.,24.0,0.,24.0
1980-11-14 17:19:56.470 ,7,1,0.,24.0,0.,24.0,0.,24.0,0.,24.0
1980-11-14 17:20:20.470 ,7,0,0.,24.0,0.,24.0,0.,24.0,0.,24.0
1980-11-14 17:20:44.470 ,7,1,1.,24.0,0.,24.0,0.,24.0,0.,24.0
1980-11-14 17:21:08.470 ,7,0,0.,24.0,0.,24.0,0.,24.0,0.,24.0
1980-11-14 17:21:32.470 ,6,1,0.,24.0,0.,24.0,0.,24.0,0.,24.0
1980-11-14 17:21:56.470 ,6,0,0.,24.0,0.,24.0,0.,24.0,0.,24.0
1980-11-14 17:22:20.470 ,5,1,0.,24.0,0.,24.0,0.,24.0,0.,24.0
1980-11-14 17:22:44.470 ,5,0,0.,24.0,0.,24.0,0.,24.0,0.,24.0
1980-11-14 17:23:08.470 ,4,1,0.,24.0,0.,24.0,0.,24.0,0.,24.0
1980-11-14 17:23:32.470 ,4,0,0.,24.0,0.,24.0,0.,24.0,0.,24.0
1980-11-14 17:23:56.470 ,3,1,0.,24.0,0.,24.0,0.,24.0,0.,24.0
1980-11-14 17:24:20.470 ,3,0,0.,24.0,0.,24.0,0.,24.0,0.,24.0
1980-11-14 17:24:44.470 ,2,1,0.,24.0,0.,24.0,0.,24.0,0.,24.0
1980-11-14 17:25:08.470 ,2,0,0.,24.0,0.,24.0,0.,24.0,0.,24.0
1980-11-14 17:25:32.470 ,1,1,0.,24.0,0.,24.0,0.,24.0,0.,24.0
1980-11-14 17:25:56.470 ,1,0,0.,24.0,0.,24.0,0.,24.0,0.,24.0
1980-11-14 17:26:20.470 ,0,1,0.,24.0,0.,24.0,0.,24.0,0.,24.0
1980-11-14 17:26:44.470 ,0,0,0.,24.0,0.,24.0,0.,24.0,0.,24.0
1980-11-14 17:27:08.470 ,0,1,0.,24.0,0.,24.0,0.,24.0,0.,24.0
1980-11-14 17:27:32.470 ,0,0,0.,24.0,0.,24.0,0.,24.0,0.,24.0
1980-11-14 17:27:56.470 ,1,1,0.,24.0,0.,24.0,0.,24.0,0.,24.0
1980-11-14 17:28:20.470 ,1,0,0.,24.0,0.,24.0,0.,24.0,0.,24.0
1980-11-14 17:28:44.470 ,2,1,0.,24.0,0.,24.0,0.,24.0,0.,24.0
1980-11-14 17:29:08.470 ,2,0,0.,24.0,0.,24.0,0.,24.0,0.,24.0
1980-11-14 17:29:32.470 ,3,1,0.,24.0,0.,24.0,0.,24.0,0.,24.0
1980-11-14 17:29:56.470 ,3,0,0.,24.0,0.,24.0,0.,24.0,0.,24.0
1980-11-14 17:30:20.470 ,4,1,0.,24.0,0.,24.0,0.,24.0,0.,24.0
1980-11-14 17:30:44.470 ,4,0,0.,24.0,0.,24.0,0.,24.0,0.,24.0
1980-11-14 17:31:08.470 ,5,1,0.,24.0,0.,24.0,0.,24.0,0.,24.0
1980-11-14 17:31:32.470 ,0,0,0.,24.0,0.,24.0,0.,24.0,0.,24.0
1980-11-14 17:31:56.470 ,6,1,0.,24.0,0.,24.0,0.,24.0,0.,24.0
1980-11-14 17:32:20.470 ,6,0,0.,24.0,0.,24.0,0.,24.0,0.,24.0
1980-11-14 17:32:44.470 ,7,1,0.,24.0,0.,24.0,0.,24.0,0.,24.0
1980-11-14 17:33:08.470 ,7,0,0.,24.0,0.,24.0,0.,24.0,0.,24.0
1980-11-14 17:33:32.470 ,7,1,0.,24.0,0.,24.0,0.,24.0,0.,24.0
1980-11-14 17:33:56.470 ,7,0,0.,24.0,0.,24.0,0.,24.0,0.,24.0
1980-11-14 17:34:20.470 ,6,1,0.,24.0,0.,24.0,0.,24.0,0.,24.0
1980-11-14 17:34:44.470 ,6,0,0.,24.0,0.,24.0,0.,24.0,0.,24.0
1980-11-14 17:35:08.470 ,5,1,0.,24.0,0.,24.0,0.,24.0,0.,24.0
1980-11-14 17:35:32.470 ,5,0,0.,24.0,0.,24.0,0.,24.0,0.,24.0
1980-11-14 17:35:56.470 ,4,1,0.,24.0,0.,24.0,0.,24.0,0.,24.0
1980-11-14 17:36:20.470 ,4,0,0.,24.0,0.,24.0,0.,24.0,0.,24.0
1980-11-14 17:36:44.470 ,3,1,0.,24.0,0.,24.0,0.,24.0,0.,24.0
1980-11-14 17:37:08.470 ,3,0,0.,24.0,0.,24.0,0.,24.0,0.,24.0
1980-11-14 17:37:32.470 ,2,1,0.,24.0,0.,24.0,0.,24.0,0.,24.0
1980-11-14 17:37:56.470 ,2,0,0.,24.0,0.,24.0,0.,24.0,0.,24.0
1980-11-14 17:38:20.470 ,1,1,0.,24.0,0.,24.0,0.,24.0,0.,24.0
1980-11-14 17:38:44.470 ,1,0,0.,24.0,0.,24.0,0.,24.0,0.,24.0
1980-11-14 17:39:08.470 ,0,1,0.,24.0,0.,24.0,0.,24.0,0.,24.0
1980-11-14 17:39:32.470 ,0,0,0.,24.0,0.,24.0,0.,24.0,0.,24.0
1980-11-14 17:39:56.470 ,0,1,0.,24.0,0.,24.0,0.,24.0,0.,24.0
1980-11-14 17:40:20.470 ,0,0,0.,24.0,0.,24.0,0.,24.0,0.,24.0
1980-11-14 17:40:44.470 ,1,1,0.,24.0,0.,24.0,0.,24.0,0.,24.0
1980-11-14 17:41:08.470 ,1,0,0.,24.0,0.,24.0,0.,24.0,0.,24.0
1980-11-14 17:41:32.470 ,2,1,0.,24.0,0.,24.0,0.,24.0,0.,24.0
1980-11-14 17:41:56.470 ,2,0,0.,24.0,0.,24.0,0.,24.0,0.,24.0
1980-11-14 17:42:20.470 ,3,1,0.,24.0,0.,24.0,0.,24.0,0.,24.0
1980-11-14 17:42:44.470 ,3,0,0.,24.0,0.,24.0,0.,24.0,0.,24.0
1980-11-14 17:43:08.470 ,4,1,0.,24.0,0.,24.0,0.,24.0,0.,24.0
1980-11-14 17:43:32.470 ,4,0,0.,24.0,0.,24.0,0.,24.0,0.,24.0
1980-11-14 17:43:56.470 ,5,1,0.,24.0,0.,24.0,0.,24.0,0.,24.0
1980-11-14 17:44:20.470 ,5,0,0.,24.0,0.,24.0,0.,24.0,0.,24.0
1980-11-14 17:44:44.470 ,6,1,0.,24.0,0.,24.0,0.,24.0,0.,24.0
1980-11-14 17:45:08.470 ,6,0,0.,24.0,0.,24.0,0.,24.0,0.,24.0
1980-11-14 17:45:32.470 ,7,1,0.,24.0,0.,24.0,0.,24.0,0.,24.0
1980-11-14 17:45:56.470 ,7,0,0.,24.0,0.,24.0,0.,24.0,0.,24.0
1980-11-14 17:46:20.470 ,7,1,0.,24.0,0.,24.0,0.,24.0,0.,24.0
1980-11-14 17:46:44.470 ,7,0,0.,24.0,0.,24.0,0.,24.0,0.,24.0
1980-11-14 17:47:08.470 ,6,1,0.,24.0,0.,24.0,0.,24.0,0.,24.0
1980-11-14 17:47:32.470 ,6,0,0.,24.0,0.,24.0,0.,24.0,0.,24.0
1980-11-14 17:47:56.470 ,5,1,0.,24.0,0.,24.0,0.,24.0,0.,24.0
1980-11-14 17:48:20.470 ,5,0,0.,24.0,0.,24.0,0.,24.0,0.,24.0
1980-11-14 17:48:44.470 ,4,1,0.,24.0,0.,24.0,0.,24.0,0.,24.0
1980-11-14 17:49:08.470 ,4,0,0.,24.0,0.,24.0,0.,24.0,0.,24.0
1980-11-14 17:49:32.470 ,3,1,0.,24.0,0.,24.0,0.,24.0,0.,24.0
1980-11-14 17:49:56.470 ,3,0,0.,24.0,0.,24.0,0.,24.0,0.,24.0
1980-11-14 17:50:20.470 ,2,1,0.,24.0,0.,24.0,0.,24.0,0.,24.0
1980-11-14 17:50:44.470 ,0,0,0.,24.0,0.,24.0,0.,24.0,0.,24.0
1980-11-14 17:52:04.870 ,0,0,0.,24.0,0.,24.0,0.,24.0,0.,24.0
1980-11-14 17:52:20.470 ,0,0,0.,24.0,0.,24.0,0.,24.0,0.,24.0
1980-11-14 17:52:44.470 ,0,1,0.,24.0,0.,24.0,0.,24.0,0.,24.0
1980-11-14 17:53:08.470 ,0,0,0.,24.0,0.,24.0,0.,24.0,0.,24.0
1980-11-14 17:53:32.470 ,1,1,0.,24.0,0.,24.0,0.,24.0,0.,24.0
1980-11-14 17:53:56.470 ,1,0,0.,24.0,0.,24.0,0.,24.0,0.,24.0
1980-11-14 17:54:20.470 ,2,1,0.,24.0,0.,24.0,0.,24.0,0.,24.0
1980-11-14 17:54:44.470 ,2,0,0.,24.0,0.,24.0,0.,24.0,0.,24.0
1980-11-14 17:55:08.470 ,3,1,0.,24.0,0.,24.0,0.,24.0,0.,24.0
1980-11-14 17:55:32.470 ,3,0,0.,24.0,0.,24.0,0.,24.0,0.,24.0
1980-11-14 17:55:56.470 ,4,1,0.,24.0,0.,24.0,0.,24.0,0.,24.0
1980-11-14 17:56:20.470 ,4,0,0.,24.0,0.,24.0,0.,24.0,0.,24.0
1980-11-14 17:56:44.470 ,5,1,0.,24.0,0.,24.0,0.,24.0,0.,24.0
1980-11-14 17:57:08.470 ,5,0,0.,24.0,0.,24.0,0.,24.0,0.,24.0
1980-11-14 17:57:32.470 ,6,1,0.,24.0,0.,24.0,0.,24.0,0.,24.0
1980-11-14 17:57:56.470 ,6,0,0.,24.0,0.,24.0,0.,24.0,0.,24.0
1980-11-14 17:58:20.470 ,7,1,0.,24.0,0.,24.0,0.,24.0,0.,24.0
1980-11-14 17:58:44.470 ,7,0,0.,24.0,0.,24.0,0.,24.0,0.,24.0
1980-11-14 17:59:08.470 ,7,1,0.,24.0,0.,24.0,0.,24.0,0.,24.0
1980-11-14 17:59:32.470 ,7,0,0.,24.0,0.,24.0,0.,24.0,0.,24.0
1980-11-14 17:59:56.470 ,6,1,0.,24.0,0.,24.0,0.,24.0,0.,24.0
